STARLINK-34590, 64675

Orbit data source: Space-Track

STARLINK-34590, 64675 is a payload satellite owned by SpaceX/Seattle (US) in LEO that was launched on Sat, 28 Jun 2025 UTC via an FALCON 9 launch vehicle from the Air Force Eastern Test Range (AFETR). Payload-class satellites include a variety of spacecraft equipped with specific instruments for various scientific and technological missions. These include communications satellites like Starlink; space stations such as the ISS; scientific satellites like the Hubble; Earth observation satellites from companies like Planet Labs, Umbra, and HawkEye 360; GPS; miniature CubeSats for education and research; and military/defense satellites.

Loading next visibility...
Identifier
64675, 2025-139M
Orbit
LEO
Country
Flag of USUS
Related business
Manufacturer
SpaceX/Seattle
Mission
Operational Commercial Communications
Bus & Motor
STARLINK V2MO, Unknown motor
Mass
575 kg wet, ~530 kg dry
Launch date (UTC)
2025-06-28 (1 year ago)
Launch vehicle
FALCON 9
Launch site
Air Force Eastern Test Range (AFETR)
Object type
Payload
Rocket body
Debris
Shape & HBR
Box + 2 Pan, 17.7 m
Radar Cross Section
36.964 m², Large (>1 m²)

Expand to show TLE details & history
Last TLE update: 1 day ago

TLE from 1 day ago
0 STARLINK-34590
1 64675U 25139M   26170.77351669  .00012640  00000-0  38456-3 0  9990
2 64675  53.1608  12.8723 0000904  90.6422 269.4684 15.34402140 55915
Epoch: 2026-06-19T18:33Z
TLE epoch observation values (Epoch: 2026-06-19T18:33:51.842Z)
Latitude
-0.00001°
Longitude
-173.5914°
Altitude
463.604 km
Speed
7.636 km/s
True Right ascension
00h 51m 29s
True Declination
0° 00' 00"
Sunlit
Object was in daylight at epoch
Visualization orbit readout
Latitude
Unknown
Longitude
Unknown
Altitude
Unknown
Speed
Unknown
Apparent Right ascension
Unknown
Apparent Declination
Unknown
Sunlit
N/A
Visualization observer readout
Local Sidereal Time
07:19:37
Azimuth
Unknown
Elevation
Unknown
Doppler factor
Unknown
Orbital elements
Apogee altitude
463.572 km
Perigee altitude
462.335 km
Semi-major axis
6,841.091 km
Eccentricity
0.00009
Inclination
53.1608°
RAAN
12.8723°
Arg. of periapsis
90.6422°
True anomaly
269.45804°
Mean anomaly
269.4684°
Eccentric anomaly
269.46322°
Mean motion
3.83579 °/min
Orbital period
93.85 mins
BSTAR
0.00038456
Loading maneuver chart data...
Computing Atmospheric mass density...
Loading historical data...
Loading historical data...
Loading historical data...
Loading historical data...
Loading historical data...
Loading historical data...
Loading historical data...

Documentation

Showing up to 5 results
|